Garden City, GA

5:50 PM EST on February 13, 2016 (GMT -0500)
Savannah International

Weather History for KSAV - July, 2013

Change the Weather History Date:

Monday, July 1, 2013

  Actual Average Record
Temperature  
Mean Temperature 80 °F 82 °F  
Max Temperature 86 °F 92 °F 102 °F (1990)
Min Temperature 74 °F 72 °F 64 °F (1955)
Degree Days  
Heating Degree Days 0 0  
Month to date heating degree days 0 0  
Since 1 June heating degree days 0 0  
Since 1 July heating degree days 0 0  
Cooling Degree Days 15 17  
Month to date cooling degree days 15 17  
Year to date cooling degree days 841 866  
Since 1 June cooling degree days 483 463  
Growing Degree Days 30 (Base 50)    
Moisture  
Dew Point 73 °F    
Average Humidity 80    
Maximum Humidity 94    
Minimum Humidity 65    
Precipitation  
Precipitation 0.23 in 0.16 in 2.76 in (1871)
Month to date precipitation 0.23 0.16  
Year to date precipitation 28.05 22.37  
Sea Level Pressure  
Sea Level Pressure 29.90 in    
Wind  
Wind Speed 8 mph (South)    
Max Wind Speed 16 mph    
Max Gust Speed 22 mph    
Visibility 9 miles    
Events Rain , Thunderstorm    
T = Trace of Precipitation, MM = Missing Value Source: NWS Daily Summary

Daily Weather History Graph

Daily Weather History Graph

Search for Another Location

Airport or City:

Trip Planner

Search our weather history database for the weather conditions in past years. The results will help you decide how hot, cold, wet, or windy it might be!

Date:

Astronomy

Jul. 01, 2013 Rise Set
Actual Time 6:22 AM EDT 8:35 PM EDT
Civil Twilight 5:53 AM EDT 9:03 PM EDT
Nautical Twilight 5:19 AM EDT 9:37 PM EDT
Astronomical Twilight 4:42 AM EDT 10:15 PM EDT
Moon 1:37 AM EDT (7/1) 3:00 PM EDT (7/1)
Length of Visible Light 15h 09m
Length of Day
14h 13m
Waning Crescent, 35% of the Moon is Illuminated
Jul 1
Waning Crescent
Jul 8
New
Jul 15
First Quarter
Jul 22
Full
Jul 29
Last Quarter

Hourly Weather History & Observations

Time (EDT) Temp. Heat Index Dew Point Humidity Pressure Visibility Wind Dir Wind Speed Gust Speed Precip Events Conditions
12:11 AM 78.8 °F - 73.4 °F 83% 29.85 in 10.0 mi South 10.4 mph - N/A   Mostly Cloudy
12:53 AM 77.0 °F - 73.9 °F 90% 29.84 in 10.0 mi South 8.1 mph - 0.01 in   Mostly Cloudy
1:13 AM 77.0 °F - 73.4 °F 89% 29.84 in 10.0 mi South 9.2 mph - N/A   Scattered Clouds
1:53 AM 77.0 °F - 73.0 °F 88% 29.84 in 9.0 mi South 10.4 mph - 0.00 in Rain Light Rain
2:53 AM 75.9 °F - 73.0 °F 91% 29.82 in 10.0 mi South 9.2 mph - 0.00 in   Clear
3:53 AM 75.9 °F - 73.0 °F 91% 29.83 in 10.0 mi South 6.9 mph - N/A   Scattered Clouds
4:13 AM 75.2 °F - 73.4 °F 94% 29.83 in 10.0 mi South 8.1 mph - N/A   Mostly Cloudy
4:53 AM 75.9 °F - 73.0 °F 91% 29.83 in 10.0 mi SSW 6.9 mph - N/A   Mostly Cloudy
5:17 AM 75.2 °F - 73.4 °F 94% 29.84 in 10.0 mi South 8.1 mph - N/A   Mostly Cloudy
5:53 AM 75.9 °F - 72.0 °F 87% 29.85 in 10.0 mi SSW 6.9 mph - N/A   Overcast
6:29 AM 75.2 °F - 71.6 °F 89% 29.86 in 10.0 mi SSW 8.1 mph 19.6 mph N/A   Overcast
6:53 AM 75.9 °F - 72.0 °F 87% 29.86 in 10.0 mi SW 6.9 mph - N/A   Overcast
7:53 AM 75.9 °F - 72.0 °F 87% 29.89 in 10.0 mi SSW 10.4 mph - N/A   Overcast
8:53 AM 77.0 °F - 72.0 °F 84% 29.90 in 10.0 mi SW 11.5 mph - N/A   Overcast
9:53 AM 78.1 °F - 72.0 °F 81% 29.91 in 10.0 mi SSW 4.6 mph - N/A   Overcast
10:53 AM 80.1 °F 84.2 °F 73.0 °F 79% 29.91 in 10.0 mi Variable 5.8 mph - N/A   Mostly Cloudy
11:23 AM 80.6 °F 85.4 °F 73.4 °F 79% 29.92 in 10.0 mi SSW 6.9 mph - N/A   Overcast
11:53 AM 82.0 °F 87.4 °F 73.0 °F 74% 29.92 in 10.0 mi SSW 5.8 mph - N/A   Overcast
12:53 PM 84.0 °F 90.2 °F 73.0 °F 69% 29.91 in 10.0 mi South 5.8 mph - N/A   Overcast
1:53 PM 84.9 °F 90.7 °F 72.0 °F 65% 29.90 in 10.0 mi South 10.4 mph - N/A   Overcast
2:53 PM 82.0 °F 87.4 °F 73.0 °F 74% 29.89 in 10.0 mi SSE 17.3 mph 21.9 mph N/A   Mostly Cloudy
3:03 PM 80.6 °F 86.2 °F 75.2 °F 84% 29.89 in 8.0 mi South 10.4 mph - 0.00 in Rain , Thunderstorm Light Thunderstorms and Rain
3:11 PM 78.8 °F - 75.2 °F 89% 29.90 in 2.5 mi SSW 9.2 mph - 0.00 in Rain , Thunderstorm Light Thunderstorms and Rain
3:15 PM 78.8 °F - 75.2 °F 89% 29.90 in 1.2 mi South 5.8 mph - 0.05 in Rain , Thunderstorm Heavy Thunderstorms and Rain
3:26 PM 78.8 °F - 73.4 °F 83% 29.90 in 2.0 mi SSE 10.4 mph - 0.23 in Rain , Thunderstorm Light Thunderstorms and Rain
3:28 PM 77.0 °F - 73.4 °F 89% 29.91 in 4.0 mi South 9.2 mph - 0.23 in Rain , Thunderstorm Light Thunderstorms and Rain
3:53 PM 77.0 °F - 73.0 °F 88% 29.92 in 10.0 mi SSW 9.2 mph - 0.23 in Rain , Thunderstorm Light Thunderstorms and Rain
4:53 PM 73.9 °F - 71.1 °F 91% 29.92 in 10.0 mi South 8.1 mph - 0.00 in Thunderstorm Thunderstorm
5:21 PM 73.4 °F - 71.6 °F 94% 29.92 in 10.0 mi SSE 10.4 mph - N/A   Mostly Cloudy
5:53 PM 75.0 °F - 72.0 °F 90% 29.92 in 10.0 mi SSE 11.5 mph - N/A   Mostly Cloudy
6:00 PM 75.2 °F - 71.6 °F 89% 29.92 in 10.0 mi SSE 10.4 mph - N/A   Mostly Cloudy
6:53 PM 75.9 °F - 73.9 °F 94% 29.91 in 10.0 mi South 10.4 mph - 0.00 in   Overcast
7:44 PM 75.2 °F - 73.4 °F 94% 29.94 in 10.0 mi South 9.2 mph - N/A   Mostly Cloudy
7:53 PM 75.9 °F - 73.0 °F 91% 29.94 in 10.0 mi South 10.4 mph - N/A   Mostly Cloudy
8:53 PM 75.0 °F - 72.0 °F 90% 29.97 in 10.0 mi South 11.5 mph - N/A   Mostly Cloudy
9:53 PM 75.0 °F - 71.1 °F 87% 29.99 in 10.0 mi South 9.2 mph - N/A   Mostly Cloudy
10:25 PM 75.2 °F - 71.6 °F 89% 29.99 in 10.0 mi South 6.9 mph - N/A   Partly Cloudy
10:53 PM 75.0 °F - 71.1 °F 87% 30.00 in 10.0 mi Calm Calm - N/A   Mostly Cloudy
11:53 PM 73.9 °F - 71.1 °F 91% 30.02 in 10.0 mi Calm Calm - N/A   Mostly Cloudy